Location: Franeker
(53.1896°N, 5.5426°E)
Time: 14:19:42
(UTC+00:00)

Daily predictions for brighter satellites

Satellite Brightness Start Highest point End
(mag) Time Altitude Azimuth Time Altitude Azimuth Time Altitude Azimuth
BREEZE-M DEB (TANK) 3.7 19:12:03 10° SW 19:15:46 53° SSE 19:27:49 10° E
Ariane Rocket 3.0 19:21:29 10° SSE 19:26:32 79° ENE 19:31:37 10° NNW
Cosmos 614 Rocket 4.1 19:22:54 10° S 19:27:51 51° ESE 19:32:48 10° NNE
ATLAS 3B R/B 3.6 19:22:27 10° NW 19:29:07 48° WSW 19:36:02 10° SSE
Terra 3.9 19:26:51 10° E 19:29:15 14° NE 19:31:39 10° NNE
COSMOS 2487 3.8 19:26:00 10° SW 19:29:17 44° WNW 19:32:35 10° NNE
FALCON 9 DEB 3.4 19:26:07 10° SW 19:29:26 50° SSE 19:32:47 10° E
Cosmos 2251 Rocket 3.5 19:24:17 10° SSW 19:29:36 70° ESE 19:34:55 10° NNE
Cosmos 2279 Rocket 4.1 19:28:46 10° S 19:34:47 57° E 19:40:51 10° NNE
Cosmos 1980 3.9 19:31:28 10° NNW 19:37:11 79° WSW 19:42:52 10° SSE
Cosmos 2026 Rocket 4.4 19:31:22 10° NNW 19:37:25 69° W 19:43:29 10° S
USA 102 0.0 19:37:32 51° E 19:37:42 64° NE 20:26:43 10° NW
SL-16 R/B 2.7 19:32:17 10° NNW 19:37:49 48° NE 19:43:18 10° ESE
SME Rocket 3.7 19:35:02 10° NNE 19:38:51 63° WNW 19:43:37 10° SSW
SPOT 1/Viking Rocket 4.3 19:34:13 10° SE 19:39:00 38° ENE 19:43:48 10° N
SPOT 5 4.5 19:35:34 10° ESE 19:39:00 20° NE 19:42:34 10° N
Cosmos 2151 3.3 19:35:01 10° N 19:39:15 51° ENE 19:43:26 10° SSE
MOS 1 4.4 19:34:18 10° SSE 19:39:57 83° WSW 19:45:39 10° NNW
Cosmos-2242 4.0 19:37:13 10° SE 19:40:51 27° E 19:44:30 10° NNE
USA 215 3.4 19:35:05 10° ESE 19:41:39 81° NNE 19:48:13 10° WNW
SPOT 3 Rocket 3.7 19:41:41 10° SSE 19:46:49 65° ENE 19:51:57 10° N
Cosmos 1455 3.3 19:44:59 10° SSW 19:48:37 48° WNW 19:52:16 10° N
COSMOS 2455 4.0 19:45:23 10° SSE 19:49:46 21° ESE 19:54:10 10° ENE
Cosmos 2219 Rocket 4.2 19:46:48 10° NW 19:51:24 26° WSW 19:55:59 10° SSW
ATLAS 5 CENTAUR R/B 3.7 19:47:51 10° WNW 19:51:44 28° NNW 19:56:10 10° NE
SL-4 R/B 3.4 19:48:31 10° SSW 19:52:00 23° SE 19:55:39 10° E
USA 186 4.2 19:52:41 10° SSW 19:55:16 22° W 19:57:45 10° NW
Cosmos 1076 Rocket 3.9 19:51:09 10° NNW 19:55:30 69° W 19:59:47 10° S
Cosmos 2266 Rocket 4.1 19:49:32 10° N 19:55:54 62° ENE 20:02:07 10° SSE
ERS-1 Rocket 4.1 19:53:53 11° ESE 19:57:55 30° ENE 20:02:15 10° N
IGS 5A 3.5 19:54:39 10° SSE 19:58:46 69° ENE 20:02:56 10° N
OBJECT-B 2.8 19:57:05 10° SSW 19:59:57 29° W 20:02:51 10° NNW
Landsat 7 3.9 19:55:30 10° SSE 20:00:13 67° ENE 20:04:58 10° N
Cosmos 44 3.9 19:59:23 10° SW 20:04:36 71° NW 20:10:04 10° NE
Cosmos 2221 4.4 20:05:05 12° ESE 20:06:30 14° E 20:08:37 10° NE
Cosmos 2344 3.6 19:59:30 10° SW 20:06:55 85° SE 20:15:13 10° NE
ARIANE 5 R/B 3.2 20:04:04 14° SE 20:07:31 41° ENE 20:11:39 10° N
USA 245 3.3 20:05:50 16° SE 20:08:18 41° ENE 20:11:01 10° N
Cosmos 407 Rocket 3.5 20:03:21 10° S 20:08:24 61° ESE 20:13:32 10° NNE
Meteor 2-3 Rocket 3.8 20:06:11 10° NNW 20:11:59 83° ENE 20:17:42 10° SSE
Orbus 7S? 3.5 20:09:21 10° WSW 20:12:29 83° SSE 20:19:03 10° ENE
IRIDIUM 104 4.4 20:07:22 10° S 20:12:36 88° W 20:17:51 10° N
Cosmos 1023 Rocket 4.4 20:08:28 10° S 20:13:27 61° ESE 20:18:30 10° NNE
MetOp-B 4.1 20:09:18 10° SSE 20:14:39 82° ENE 20:20:03 10° NNW
RESURS DK-1 3.9 20:11:49 10° WSW 20:15:45 41° NW 20:19:43 10° NNE
Cosmos 44 Rocket 4.3 20:15:45 10° S 20:19:57 26° ESE 20:24:14 10° ENE
Cosmos 1140 Rocket 3.4 20:16:35 10° SSW 20:21:40 68° ESE 20:26:47 10° NNE
CZ-2C R/B 3.8 20:18:49 10° NNE 20:23:11 53° E 20:27:31 10° S
Cosmos 1812 Rocket 3.8 20:19:07 10° SSW 20:23:34 75° WNW 20:28:04 10° N
Cosmos 2237 Rocket 3.3 20:19:34 10° NW 20:24:48 40° WSW 20:30:01 10° S
Cosmos 1954 Rocket 4.3 20:20:59 10° S 20:25:50 43° ESE 20:30:43 10° NE
Timation 2 Rocket 4.0 20:22:14 10° SSW 20:28:40 62° ESE 20:34:50 10° NE
Cosmos 1818 4.2 20:26:04 10° WSW 20:31:29 60° NW 20:36:55 10° NE
Cosmos 1766 Rocket 3.5 20:28:59 10° N 20:33:20 74° ENE 20:36:21 20° SSE
USA 229 DEB 4.1 20:26:20 10° NW 20:33:25 64° NE 20:39:35 16° ESE
USA 229 4.1 20:26:25 10° NW 20:33:31 64° NE 20:39:42 16° ESE
BREEZE M DEB (TANK) 2.9 20:28:21 10° WSW 20:35:06 43° S 20:36:34 25° ESE
Cosmos 2263 Rocket 3.7 20:34:38 15° ESE 20:35:07 15° E 20:38:13 10° ENE
Spot 2 Rocket 3.5 20:32:07 17° SSE 20:36:00 78° ENE 20:41:06 10° NNW
CARTOSAT-1 3.6 20:33:28 21° SSE 20:36:15 64° ENE 20:40:32 10° N
Cosmos 1633 4.1 20:36:18 10° NNW 20:39:35 34° W 20:42:50 10° SSW
Cosmos 482 Debris 3.0 20:38:47 10° W 20:40:38 47° SW 20:40:38 47° SW
Cosmos 909 Rocket 4.5 20:35:17 10° SW 20:41:31 69° NW 20:48:17 10° NE
FALCON 9 DEB 3.6 20:39:05 10° SW 20:41:38 32° SSE 20:41:38 32° SSE
Okean 3 Rocket 3.6 20:37:56 10° N 20:42:31 89° ENE 20:45:38 20° S
Cosmos 2227 Rocket 2.1 20:37:42 10° SSW 20:43:21 77° ESE 20:49:02 10° NE
Cosmos 2082 3.9 20:38:16 10° S 20:43:35 46° ESE 20:48:56 10° NE
FALCON 9 DEB 3.2 20:43:35 10° SW 20:46:27 38° SSE 20:46:28 38° SSE
Lacrosse 5 rocket 1.9 20:42:26 10° WNW 20:46:39 60° NNE 20:49:59 17° E
CZ-4C R/B 4.1 20:43:16 10° WNW 20:48:35 35° N 20:54:57 10° ENE
Cosmos 468 Rocket 3.9 20:43:28 10° NNW 20:48:39 83° ENE 20:51:46 24° SSE
Cosmos 2297 Rocket 2.3 20:44:22 10° SW 20:50:02 81° WNW 20:55:45 10° NNE
Cosmos 1869 3.2 20:47:58 20° S 20:50:36 69° E 20:54:31 10° NNE
Resurs 01 Rocket 3.0 20:46:51 10° SSW 20:50:56 35° W 20:55:04 10° NNW
NOSS 3-1 (A) 4.1 20:44:19 10° NW 20:51:23 71° NE 20:57:36 19° ESE
Meteor 1-4 Rocket 2.4 20:50:30 27° S 20:52:12 64° E 20:55:45 10° NNE
Cosmos 1603 4.2 20:46:56 10° NNW 20:52:31 49° NE 20:55:59 22° ESE
ATLAS 2AS CENTAUR R/B 4.0 20:45:28 10° W 20:53:06 50° NNW 21:00:27 10° NE
Cosmos 841 Rocket 3.9 20:48:20 10° NNW 20:53:27 50° ENE 20:56:15 25° ESE
FALCON 9 DEB 3.1 20:55:32 10° SW 20:58:12 44° S 20:58:12 44° S
Cosmos 2219 3.3 20:53:41 10° SW 20:59:18 77° WNW 21:04:58 10° NNE
Cosmos 1763 Rocket 3.4 20:56:23 10° NNW 21:01:30 83° WSW 21:04:17 27° SSE
Cosmos 2084 Rocket 3.1 20:58:16 10° SW 21:02:16 83° SE 21:06:23 10° NE
Terra 1.9 21:03:52 30° SE 21:06:11 68° ENE 21:10:56 10° N
Cosmos 1190 Rocket 4.4 21:01:00 10° SW 21:06:12 67° WNW 21:11:25 10° NNE
FALCON 9 DEB 3.0 21:02:49 10° W 21:06:15 89° S 21:07:41 33° E
Meteor 2-8 Rocket 4.4 21:02:57 12° S 21:08:46 88° E 21:14:56 10° NNE
Cosmos 540 Rocket 3.5 21:04:08 10° NNW 21:09:17 69° ENE 21:11:41 31° SE
BREEZE-M DEB (TANK) 4.2 21:08:17 10° WSW 21:08:46 12° SW 21:08:46 12° SW
Cosmos 921 Rocket 3.5 21:06:26 10° NNW 21:10:45 47° ENE 21:12:21 32° ESE
NOSS 3-1 (C) 4.1 21:08:01 10° NW 21:15:15 76° SW 21:20:23 26° SSE
SPOT 5 2.9 21:14:08 29° S 21:16:31 77° WSW 21:21:26 10° NNW
Cosmos-2242 4.3 21:14:12 10° SW 21:18:16 39° WNW 21:22:20 10° N
Meteor 2-2 Rocket 4.3 21:15:41 26° S 21:18:54 63° E 21:24:31 10° NNE
FALCON 9 DEB 4.3 21:17:20 10° WSW 21:18:55 26° SW 21:18:55 26° SW
SL-16 R/B 3.1 21:16:36 10° NW 21:21:53 40° WSW 21:25:19 20° SSW
Cosmos 1174 4.5 21:17:11 10° NW 21:21:55 52° NE 21:23:25 33° E
Cosmos 1842 Rocket 3.6 21:20:26 37° SSE 21:22:02 64° E 21:26:30 10° NNE
Cosmos 676 Rocket 4.1 21:19:24 10° SSW 21:24:35 74° WNW 21:29:49 10° NNE
USA 215 3.6 21:21:35 28° SSE 21:24:57 52° SW 21:31:20 10° WNW
SL-08 ROCKET BODY 4.3 21:22:31 10° N 21:28:38 82° E 21:31:37 32° SSE
Cosmos 1437 Rocket 4.3 21:29:53 21° ENE 21:29:53 21° ENE 21:32:15 10° NE
SL-4 R/B 2.3 21:26:38 10° WSW 21:31:04 57° SSE 21:33:32 26° E
Cosmos 1408 Rocket 4.0 21:28:47 10° NNW 21:33:02 56° W 21:34:52 31° SSW
COSMOS 2455 2.8 21:28:55 10° SW 21:34:58 88° SE 21:41:02 10° NE
ERS-1 Rocket 3.5 21:33:53 26° SSW 21:36:30 52° W 21:41:26 10° NNW
ATLAS 5 CENTAUR R/B 3.8 21:33:28 10° NW 21:37:42 29° NNE 21:42:36 10° ENE
Cosmos 1862 3.8 21:36:26 10° NNW 21:40:18 53° W 21:41:30 37° SSW
Sich 1 3.4 21:36:34 10° N 21:40:43 46° ENE 21:41:28 41° ESE
Cosmos 1805 Rocket 3.7 21:36:45 10° N 21:41:04 60° ENE 21:41:58 48° SE
Cosmos 2221 2.5 21:41:54 40° SSW 21:43:24 81° W 21:47:44 10° N
ARIANE 5 R/B 4.2 21:41:37 17° SW 21:44:06 29° W 21:47:56 10° NW
Meteor 2-15 Rocket 4.4 21:43:56 24° SSW 21:47:43 83° W 21:53:50 10° N
Cosmos 1943 3.1 21:42:23 10° NNW 21:48:03 84° WSW 21:50:06 41° SSE
Cosmos 1745 Rocket 3.9 21:44:21 10° N 21:50:44 85° E 21:53:26 37° SSE
Cosmos 1570 Rocket 3.9 21:46:13 10° NNW 21:51:33 86° WSW 21:53:15 45° SSE
SeaSat 1 3.6 21:47:38 10° NE 21:51:19 26° E 21:51:19 26° E
Cosmos 1743 Rocket 3.7 21:47:35 10° NNW 21:51:54 65° W 21:53:02 45° SSW
Cosmos 1709 Rocket 4.2 21:49:44 10° N 21:55:54 59° ENE 21:58:10 38° SE
NOSS 2-1 (C) 2.9 21:56:12 78° NE 21:56:12 78° NE 21:59:38 10° NE
Cosmos 44 Rocket 3.6 21:55:57 10° SW 22:01:05 74° NW 22:06:21 10° NE
Spot 4 4.2 22:00:15 43° ESE 22:01:28 55° ENE 22:06:14 10° N
Cosmos 1633 Rocket 3.7 21:57:31 10° N 22:01:39 40° ENE 22:02:12 38° E
NOSS 2-1 (D) 2.9 22:02:34 78° NW 22:02:36 78° NW 22:06:16 10° NE
TSX-5 4.2 22:01:04 17° SW 22:04:32 66° NW 22:08:15 10° NNE
BREEZE-M DEB (TANK) 4.4 22:00:26 10° W 22:06:19 26° SW 22:06:19 26° SW
Cosmos 1606 2.5 22:06:56 85° SW 22:07:01 88° WNW 22:10:49 10° N
Cosmos 1741 Rocket 4.0 22:05:12 29° SSW 22:07:57 82° WNW 22:13:16 10° NNE
S3M 4.0 22:05:25 38° S 22:08:05 79° E 22:14:31 10° NNE
Cosmos 1500 Rocket 4.4 22:05:37 10° NNW 22:09:53 44° W 22:11:06 35° SW
Cosmos 1850 Rocket 4.1 22:08:07 28° SW 22:10:57 75° WNW 22:16:15 10° NNE
Cosmos 1666 Rocket 3.7 22:08:00 10° N 22:12:28 60° ENE 22:12:59 55° ESE
Cosmos 2263 Rocket 2.0 22:16:16 43° SSW 22:18:07 77° ESE 22:23:43 10° NE
H-2A R/B 4.4 22:15:26 10° N 22:19:29 46° WNW 22:21:09 30° WSW
Aureole 1 Rocket 3.4 22:17:34 33° SW 22:20:01 77° WNW 22:24:20 10° NNE
GENESIS II 4.1 22:16:49 10° NW 22:20:39 85° NW 22:20:39 85° NW
Cosmos 968 Rocket 4.3 22:22:53 34° ESE 22:22:53 34° ESE 22:27:33 10° NE
NOSS 2-2 (D) 4.3 22:18:03 10° NW 22:22:56 71° NE 22:25:44 34° ESE
Cosmos 1242 Rocket 4.0 22:23:55 28° ENE 22:23:55 28° ENE 22:26:15 10° NNE
USA 229 DEB 4.3 22:17:27 10° NW 22:24:23 49° WSW 22:27:00 36° S
USA 229 4.3 22:17:32 10° NW 22:24:29 50° WSW 22:27:07 36° S
Lacrosse 5 rocket 1.7 22:21:37 10° WNW 22:25:34 54° SW 22:25:34 54° SW
Cosmos 2227 Rocket 4.1 22:23:03 10° W 22:28:00 30° NW 22:32:57 10° NNE
Cosmos 1782 3.7 22:28:48 38° ENE 22:28:48 38° ENE 22:32:05 10° NNE
Cosmos 1844 Rocket 3.9 22:30:56 26° E 22:30:56 26° E 22:35:11 10° NE
Cosmos 2208 Rocket 4.4 22:26:26 10° NNW 22:31:38 54° WSW 22:32:47 45° SSW
SL-24 DEB 4.1 22:32:22 69° SSE 22:32:55 86° E 22:37:35 10° N
Cosmos 1151 Rocket 3.4 22:34:17 48° E 22:34:17 48° E 22:38:17 10° NNE
Cosmos 2297 Rocket 4.4 22:30:22 10° W 22:34:58 25° NW 22:39:35 10° NNE
ALOS 2 2.7 22:35:37 59° E 22:36:00 62° ENE 22:40:20 10° N
Cosmos 1603 4.5 22:31:18 10° NW 22:36:35 39° WSW 22:37:52 34° SW
CZ-4C R/B 3.9 22:32:39 10° NW 22:38:41 41° NNE 22:45:53 10° E
Terra 3.7 22:42:44 17° WSW 22:44:24 20° W 22:47:56 10° NW
Cosmos 1933 3.3 22:45:09 80° WNW 22:45:09 80° WNW 22:49:12 10° N
ATLAS 2AS CENTAUR R/B 4.3 22:38:33 10° WNW 22:45:43 38° N 22:52:30 10° ENE
Cosmos 2082 Rocket 4.4 22:45:11 10° NNW 22:49:28 22° NNE 22:53:45 10° E
Cosmos 1602 4.0 22:46:33 10° NNW 22:50:00 60° WNW 22:50:00 60° WNW
Cosmos 836 Rocket 4.4 22:46:30 10° NNW 22:51:51 89° WSW 22:52:46 63° SSE
Cosmos 1833 Rocket 4.2 22:46:53 10° NNW 22:51:52 30° NE 22:56:05 13° E
Cosmos 1486 Rocket 4.2 22:57:26 51° ESE 22:57:42 52° ESE 23:02:53 10° NNE
Meteor 1-5 Rocket 4.3 22:54:34 10° N 23:00:19 70° ENE 23:01:31 53° SE
Meteor 1-14 Rocket 4.3 22:57:11 10° NNW 23:03:13 85° WSW 23:04:37 55° S
Cosmos 1437 Rocket 3.7 23:05:15 39° WNW 23:05:20 39° WNW 23:08:58 10° N
USA 290 3.7 23:04:05 10° NNW 23:06:25 37° N 23:06:25 37° N
SL-4 R/B 3.0 23:05:59 10° W 23:09:09 43° WSW 23:09:09 43° WSW
Meteor 2-6 Rocket 4.4 23:11:23 48° ESE 23:11:59 51° E 23:17:13 10° NNE
Cosmos 2184 Rocket 4.0 23:06:53 10° N 23:13:16 81° ENE 23:14:58 52° SSE
NOSS 2-2 (C) 4.3 23:08:17 10° NW 23:13:22 68° SW 23:14:35 55° S
NOSS 2-2 (E) 4.5 23:09:20 10° NW 23:14:33 60° SW 23:15:39 52° S
Cosmos 1869 Rocket 4.4 23:11:28 10° N 23:15:36 39° ENE 23:15:55 38° E
Cosmos 2315 Rocket 4.2 23:16:01 41° SW 23:18:13 65° WNW 23:24:35 10° N
Cosmos 1515 Rocket 3.7 23:19:41 66° E 23:19:41 66° E 23:24:00 10° NNE
Cosmos 2278 Rocket 4.3 23:19:29 13° E 23:20:01 13° E 23:22:25 10° ENE
Cosmos 1666 3.1 23:16:46 10° N 23:20:00 59° NNE 23:20:00 59° NNE
COSMOS 2455 4.5 23:16:12 10° W 23:21:36 33° NNW 23:27:02 10° NE
ATLAS 5 CENTAUR R/B 2.6 23:18:05 10° NW 23:23:14 59° NE 23:27:06 22° ESE
Cosmos 783 Rocket 4.4 23:19:39 10° NNW 23:24:59 82° ENE 23:25:50 63° SE
SeaSat 1 2.7 23:24:48 10° NNE 23:29:42 64° NW 23:31:04 45° WSW
Cosmos 1470 Rocket 4.0 23:28:04 10° NNW 23:32:15 50° W 23:32:15 50° W
Nimbus 7 Rocket 4.3 23:32:38 10° NNE 23:38:34 86° ESE 23:39:53 56° SSW
Iridium 4 Rocket 4.0 23:38:02 43° WSW 23:39:00 49° W 23:44:20 10° N
Cosmos 1633 Rocket 4.5 23:35:37 10° NNW 23:39:17 27° W 23:39:17 27° W
Cosmos 2074 Rocket 4.0 23:33:26 10° NNW 23:39:41 69° W 23:41:12 51° SSW
USA 306 4.0 23:43:12 35° E 23:43:12 35° E 23:45:46 10° ENE
SAR-Lupe-2 4.5 23:38:35 10° N 23:41:36 44° NW 23:41:36 44° NW
COSMOS 2406 3.7 23:36:42 10° NNW 23:42:19 55° NE 23:44:55 30° ESE
Cosmos 1844 3.7 23:41:40 59° SSE 23:42:27 67° ESE 23:48:08 10° NE
Cosmos 1503 Rocket 3.8 23:44:44 68° SSE 23:45:09 72° ESE 23:50:21 10° NNE
USA 281 3.1 23:43:08 42° SE 23:45:36 87° ENE 23:52:14 10° NNW
Cosmos 1812 3.1 23:48:00 59° NNW 23:48:00 59° NNW 23:51:23 10° N
Cosmos 1933 Rocket 4.0 23:44:17 10° NNW 23:48:19 50° W 23:48:19 50° W
